Main page
METAR-TAF:

METAR-TAF

Airports :

Porterville Municipal Airport

Porterville, California, United States

latitude: 36-02N, longitude: 119-04W, elevation: 443 ft

Current weather observation

The report was made 38 minutes ago, at 02:56 UTC
Wind 8 mph from the North/Northwest
Temperature 82°F
Humidity 28%
Pressure 29.94 in. Hg
Visibility: 10 miles
Clear sky

METAR: KPTV 290256Z AUTO 33007KT 10SM CLR 28/08 A2994 RMK AO2 SLP136 T02780078 53001

Time: 20:34 (03:34 UTC)


TAF: missing

Weather observations and forecasts of more than 4000 airports (METAR and TAF reports).

The available stations are represented by yellow and red dots on the map.

Hover mouse over dot to see the name of the station.

Then click to see weather observations and forecasts.

To change the map : click on the green buttons with a black cross to zoom in, on the green button with a dash to zoom out, or on the green arrows for adjacent maps.


METAR-TAF: